Regional Weather Roundup
Issued by NWS

Home | Current Version | Previous Version | Text Only | Print | Product List | Glossary On
Versions: 1 2 3 4 5 6 7 8 9 10 11 12 13 14 15 16 17 18 19 20 21 22 23 24 25 26 27 28 29 30 31 32 33 34 35 36 37 38 39 40 41 42 43 44 45 46 47 48 49 50
000
ASUS45 KABQ 182210
RWRNM
WEATHER ROUNDUP FOR NEW MEXICO
NATIONAL WEATHER SERVICE ALBUQUERQUE NM
300 PM MST THU DEC 18 2014

NOTE: "FAIR" MEANS FEW OR NO CLOUDS BELOW 12,000 FEET AGL WITH NO
       SIGNIFICANT WEATHER OR OBSTRUCTIONS TO VISION.

      THIS PRODUCT IS RELEASED AS TWO VERSIONS.  ONE VERSION NEAR
      THE TOP OF THE HOUR CONTAINING PRELIMINARY DATA FROM ALBUQUERQUE
      AND OTHER STATIONS.  A FINAL VERSION WITH ADDITIONAL DATA IS
      ISSUED ABOUT 10 MINUTES AFTER THE HOUR.

NMZ501-503-504-510>518-182300-
NORTHWEST PLATEAU/NORTHCENTRAL MOUNTAINS

CITY           SKY/WX    TMP DP  RH WIND       PRES   REMARKS
FARMINGTON     MOSUNNY   39  30  70 W8        30.09S WCI  33
LOS ALAMOS     CLOUDY    32  26  78 SE3       30.08R
SANTA FE       CLOUDY    38  24  57 NW7       30.07R WCI  33
TAOS           PTSUNNY   34  23  64 N5        30.06F WCI  30
ANGEL FIRE     FAIR      30  20  67 W12       30.04S WCI  20

$$
NMZ402-403-502-505>509-182300-
WESTCENTRAL MOUNTAINS/SOUTHWEST MOUNTAINS

CITY           SKY/WX    TMP DP  RH WIND       PRES   REMARKS
GALLUP         CLOUDY    37  25  61 SW6       30.09S WCI  32
GRANTS         CLOUDY    36  27  70 W10       30.10S WCI  29
SILVER CITY    RAIN      34  32  93 NW9       30.09R WCI  26

$$
NMZ407-409-411-412-182300-
SOUTHERN DESERTS

CITY           SKY/WX    TMP DP  RH WIND       PRES   REMARKS
LORDSBURG      FAIR      45  39  81 NE3       30.06S
DEMING         LGT RAIN  48  40  73 SW9G22    30.05R
LAS CRUCES     CLOUDY    52  35  51 SW7       30.05F
HOLLOMAN AFB   CLOUDY    54  30  39 CALM      30.03F
ALAMOGORDO     CLOUDY    54  30  40 S6        30.05S
T OR C         LGT RAIN  45  37  73 S3        30.04S

$$
NMZ519>523-182300-
CENTRAL VALLEYS/CENTRAL HIGHLANDS

CITY           SKY/WX    TMP DP  RH WIND       PRES   REMARKS
ALBUQUERQUE    PTSUNNY   43  27  53 N3        30.08F
DOUBLE EAGLE   CLOUDY    39  27  60 VRB7      30.09S WCI  34
MORIARTY ARPT  CLOUDY    40  24  52 NW7       30.07S
CLINES CORNERS CLOUDY    38  22  52 W14       30.03S WCI  30
BELEN          CLOUDY    44  29  55 N6        30.08S
SOCORRO        CLOUDY    47  31  54 SW5       30.06S

$$
NMZ524>526-539-540-182300-
SOUTHCENTRAL MOUNTAINS

CITY           SKY/WX    TMP DP  RH WIND       PRES   REMARKS
RUIDOSO        CLOUDY    41  23  48 SW16G22   30.07S

$$
NMZ527>531-182300-
NORTHEAST HIGHLANDS/NORTHEAST PLAINS

CITY           SKY/WX    TMP DP  RH WIND       PRES   REMARKS
LAS VEGAS      PTSUNNY   43  17  35 SE8       29.99S
RATON          MOSUNNY   46  19  34 S7        29.98S
CLAYTON        NOT AVBL

$$
NMZ532>537-182300-
EASTCENTRAL PLAINS

CITY           SKY/WX    TMP DP  RH WIND       PRES   REMARKS
TUCUMCARI      PTSUNNY   45  31  58 NE5       30.03R
CANNON AFB     PTSUNNY   54  19  25 W15       30.02F
CLOVIS AIRPORT PTSUNNY   54  23  30 W6        30.02S

$$
NMZ028-029-538-182300-
SOUTHEAST PLAINS

CITY           SKY/WX    TMP DP  RH WIND       PRES   REMARKS
ROSWELL        CLOUDY    55  31  39 SE8       30.03S
ARTESIA        CLOUDY    57  34  41 SE10      30.03S
CARLSBAD       CLOUDY    61  34  36 SE8       30.01S
HOBBS          SUNNY     59  32  36 CALM      30.05S


$$


USA.gov is the U.S. government's official web portal to all federal, state and local government web resources and services.